This is the latest recevied weather packets stored in our database for station/object WX2NJ. If no packets are shown the sender has not sent any weather packets the latest 10 day(s).
| Time | Temp. | Humidity | Pressure | Rain* | Wind** | Luminosity | Snow |
|---|---|---|---|---|---|---|---|
| 1777506571 | 10.56° C | 85% | 1014.8 hPa | 0 mm | - | 0 W/m² | - |
| 1777506267 | 10.56° C | 85% | 1014.9 hPa | 0 mm | - | 0 W/m² | - |
| 1777503231 | 10.56° C | 84% | 1014.9 hPa | 0 mm | - | 16 W/m² | - |
| 1777502928 | 10.56° C | 84% | 1014.9 hPa | 0 mm | - | 13 W/m² | - |
| 1777502322 | 10.56° C | 83% | 1015 hPa | 0 mm | - | 18 W/m² | - |
| 1777502018 | 11.11° C | 82% | 1015 hPa | 0 mm | - | 22 W/m² | - |
| 1777501715 | 11.11° C | 83% | 1014.9 hPa | 0 mm | - | 31 W/m² | - |
| 1777501413 | 11.11° C | 82% | 1014.8 hPa | 0 mm | - | 42 W/m² | - |
| 1777501110 | 11.11° C | 82% | 1014.9 hPa | 0 mm | - | 37 W/m² | - |
| 1777500808 | 11.11° C | 82% | 1014.7 hPa | 0 mm | - | 44 W/m² | - |
| 1777500505 | 11.11° C | 83% | 1014.8 hPa | 0 mm | - | 56 W/m² | - |
| 1777499898 | 11.11° C | 82% | 1014.8 hPa | 0 mm | - | 51 W/m² | - |
| 1777499595 | 11.11° C | 81% | 1014.8 hPa | 0 mm | - | 69 W/m² | - |
| 1777499292 | 11.11° C | 81% | 1014.8 hPa | 0 mm | - | 89 W/m² | - |
| 1777498990 | 11.11° C | 81% | 1014.9 hPa | 0 mm | - | 95 W/m² | - |
| 1777498685 | 11.11° C | 80% | 1014.7 hPa | 0 mm | - | 108 W/m² | - |
| 1777498382 | 11.67° C | 80% | 1014.7 hPa | 0 mm | - | 139 W/m² | - |
| 1777498079 | 11.67° C | 80% | 1015.1 hPa | 0 mm | - | 133 W/m² | - |
| 1777497776 | 11.67° C | 80% | 1014.9 hPa | 0 mm | - | 95 W/m² | - |
| 1777497473 | 11.11° C | 80% | 1015.2 hPa | 0 mm | - | 91 W/m² | - |
| 1777497169 | 11.11° C | 80% | 1015.1 hPa | 0 mm | - | 83 W/m² | - |
| 1777496866 | 11.11° C | 79% | 1015.3 hPa | 0 mm | - | 91 W/m² | - |
| 1777496563 | 11.67° C | 79% | 1015.3 hPa | 0 mm | - | 84 W/m² | - |
| 1777496259 | 11.67° C | 78% | 1015.3 hPa | 0 mm | - | 91 W/m² | - |
| 1777495651 | 11.67° C | 79% | 1015.4 hPa | 0 mm | - | 105 W/m² | - |
* Rain latest hour (hover to see other rain measurements)
** Current wind speed in m/s (hover to see current wind gust speed)